ANA12G RJGG-RJOA

Flight info

Callsign ANA12G
Flight time 0h 44m
Altitude 26000
Route HIKNE Y207 ARASI Y20 KAMMY Y202 AMURO
Aircraft A321/M-SDE3FGHIRWY/LB1

Departure

Time 2026-05-06 21:58
Airport Chubu Centrair International Airport (RJGG)

Arrival

Time 2026-05-06 22:43
Airport Hiroshima Airport (RJOA)
Time Latitude Longitude Altitude Speed Heading
2026-05-06 21:12 34.85747 136.81021 28 ft 0 kts
2026-05-06 21:36 34.85746 136.81021 28 ft 1 kts
2026-05-06 21:36 34.85722 136.81021 28 ft 4 kts 347°
2026-05-06 21:36 34.85698 136.81032 28 ft 4 kts 323°
2026-05-06 21:36 34.85679 136.81055 28 ft 4 kts 298°
2026-05-06 21:37 34.85672 136.81083 28 ft 3 kts 263°
2026-05-06 21:37 34.85672 136.81088 28 ft 0 kts 259°
2026-05-06 21:42 34.85668 136.81061 28 ft 7 kts 259°
2026-05-06 21:42 34.85660 136.81018 28 ft 1 kts 258°
2026-05-06 21:43 34.85651 136.80981 28 ft 8 kts 244°
2026-05-06 21:43 34.85592 136.80954 28 ft 8 kts 175°
2026-05-06 21:43 34.85550 136.80962 28 ft 8 kts 169°
2026-05-06 21:43 34.85482 136.80978 28 ft 7 kts 169°
2026-05-06 21:44 34.85420 136.80993 28 ft 10 kts 168°
2026-05-06 21:44 34.85360 136.81008 28 ft 4 kts 169°
2026-05-06 21:44 34.85307 136.81021 28 ft 11 kts 168°
2026-05-06 21:44 34.85213 136.81044 28 ft 17 kts 168°
2026-05-06 21:45 34.85078 136.81076 28 ft 23 kts 168°
2026-05-06 21:45 34.84903 136.81119 28 ft 26 kts 168°
2026-05-06 21:45 34.84718 136.81164 28 ft 24 kts 168°
2026-05-06 21:45 34.84554 136.81204 28 ft 21 kts 169°
2026-05-06 21:46 34.84452 136.81189 28 ft 14 kts 221°
2026-05-06 21:46 34.84402 136.81137 28 ft 8 kts 194°
2026-05-06 21:46 34.84386 136.81133 27 ft 0 kts 192°
2026-05-06 21:53 34.84384 136.81132 27 ft 1 kts 192°
2026-05-06 21:53 34.84374 136.81128 27 ft 2 kts 201°
2026-05-06 21:53 34.84358 136.81115 27 ft 3 kts 219°
2026-05-06 21:53 34.84342 136.81089 27 ft 4 kts 240°
2026-05-06 21:54 34.84330 136.81048 26 ft 3 kts 258°
2026-05-06 21:56 34.84328 136.81035 26 ft 3 kts 258°
2026-05-06 21:56 34.84323 136.81001 29 ft 6 kts 259°
2026-05-06 21:57 34.84321 136.80940 24 ft 9 kts 284°
2026-05-06 21:57 34.84365 136.80891 26 ft 9 kts 339°
2026-05-06 21:57 34.84435 136.80873 27 ft 14 kts 349°
2026-05-06 21:57 34.84678 136.80817 27 ft 67 kts 349°
2026-05-06 21:58 34.85337 136.80651 29 ft 124 kts 348°
2026-05-06 21:58 34.86325 136.80408 30 ft 164 kts 348°
2026-05-06 21:58 34.87504 136.80147 301 ft 178 kts 349°
2026-05-06 21:58 34.88700 136.79759 884 ft 178 kts 342°
2026-05-06 21:59 34.89864 136.79262 1473 ft 177 kts 340°
2026-05-06 21:59 34.91033 136.78748 1903 ft 185 kts 340°
2026-05-06 21:59 34.92326 136.78189 2043 ft 208 kts 341°
2026-05-06 21:59 34.93772 136.77578 2191 ft 233 kts 341°
2026-05-06 22:00 34.95389 136.76906 2546 ft 254 kts 341°
2026-05-06 22:00 34.97052 136.76116 3293 ft 259 kts 327°
2026-05-06 22:00 34.98237 136.74497 4078 ft 260 kts 291°
2026-05-06 22:00 34.98514 136.72331 4918 ft 261 kts 267°
2026-05-06 22:01 34.98287 136.70136 5745 ft 262 kts 259°
2026-05-06 22:01 34.97888 136.67955 6551 ft 265 kts 256°
2026-05-06 22:01 34.97459 136.65762 7296 ft 268 kts 257°
2026-05-06 22:01 34.97248 136.63495 8021 ft 272 kts 271°
2026-05-06 22:02 34.97636 136.61231 8739 ft 278 kts 290°
2026-05-06 22:02 34.98636 136.59187 9458 ft 285 kts 304°
2026-05-06 22:02 34.99838 136.57246 10147 ft 289 kts 304°
2026-05-06 22:02 35.01088 136.55212 10386 ft 311 kts 304°
2026-05-06 22:03 35.02425 136.53018 10507 ft 334 kts 304°
2026-05-06 22:03 35.03838 136.50692 10845 ft 347 kts 304°
2026-05-06 22:03 35.05281 136.48311 11461 ft 351 kts 304°
2026-05-06 22:03 35.06737 136.45908 12102 ft 354 kts 303°
2026-05-06 22:04 35.08206 136.43486 12724 ft 357 kts 303°
2026-05-06 22:04 35.09692 136.41039 13422 ft 359 kts 303°
2026-05-06 22:04 35.11184 136.38575 14063 ft 362 kts 303°
2026-05-06 22:04 35.12685 136.36095 14630 ft 365 kts 303°
2026-05-06 22:05 35.14198 136.33589 15179 ft 368 kts 303°
2026-05-06 22:05 35.15723 136.31059 15735 ft 372 kts 304°
2026-05-06 22:05 35.17263 136.28502 16284 ft 375 kts 304°
2026-05-06 22:05 35.18816 136.25924 16820 ft 378 kts 304°
2026-05-06 22:06 35.20379 136.23329 17340 ft 381 kts 304°
2026-05-06 22:06 35.21781 136.20571 17842 ft 382 kts 294°
2026-05-06 22:06 35.22679 136.17513 18332 ft 383 kts 282°
2026-05-06 22:06 35.23025 136.14285 18758 ft 384 kts 270°
2026-05-06 22:07 35.22804 136.11038 19189 ft 385 kts 259°
2026-05-06 22:07 35.22335 136.07849 19623 ft 387 kts 259°
2026-05-06 22:07 35.21851 136.04562 20068 ft 389 kts 259°
2026-05-06 22:07 35.21373 136.01299 20511 ft 391 kts 259°
2026-05-06 22:08 35.20893 135.98024 20957 ft 392 kts 259°
2026-05-06 22:08 35.20409 135.94733 21388 ft 394 kts 259°
2026-05-06 22:08 35.19920 135.91424 21814 ft 396 kts 259°
2026-05-06 22:08 35.19434 135.88141 22223 ft 399 kts 259°
2026-05-06 22:09 35.18932 135.84753 22678 ft 400 kts 259°
2026-05-06 22:09 35.18442 135.81444 23091 ft 402 kts 259°
2026-05-06 22:09 35.17938 135.78072 23518 ft 404 kts 259°
2026-05-06 22:09 35.17397 135.74688 23907 ft 406 kts 258°
2026-05-06 22:10 35.16827 135.71305 24263 ft 408 kts 258°
2026-05-06 22:10 35.16243 135.67912 24634 ft 409 kts 258°
2026-05-06 22:10 35.15649 135.64505 25001 ft 411 kts 257°
2026-05-06 22:10 35.15058 135.61087 25377 ft 412 kts 258°
2026-05-06 22:11 35.14473 135.57658 25725 ft 413 kts 258°
2026-05-06 22:11 35.13889 135.54214 26015 ft 415 kts 258°
2026-05-06 22:11 35.13307 135.50770 26070 ft 411 kts 258°
2026-05-06 22:11 35.12730 135.47359 26080 ft 408 kts 258°
2026-05-06 22:12 35.12153 135.43971 26079 ft 407 kts 258°
2026-05-06 22:12 35.11574 135.40591 26076 ft 406 kts 258°
2026-05-06 22:12 35.10998 135.37216 26080 ft 406 kts 258°
2026-05-06 22:12 35.10423 135.33842 26082 ft 406 kts 258°
2026-05-06 22:13 35.09848 135.30468 26083 ft 405 kts 258°
2026-05-06 22:13 35.09271 135.27098 26083 ft 405 kts 258°
2026-05-06 22:13 35.08692 135.23735 26082 ft 405 kts 257°
2026-05-06 22:13 35.08108 135.20372 26086 ft 405 kts 257°
2026-05-06 22:14 35.07527 135.17017 26087 ft 404 kts 257°
2026-05-06 22:14 35.06946 135.13663 26087 ft 404 kts 257°
2026-05-06 22:14 35.06366 135.10303 26087 ft 404 kts 257°
2026-05-06 22:14 35.05785 135.06949 26089 ft 404 kts 257°
2026-05-06 22:15 35.05204 135.03605 26084 ft 403 kts 257°
2026-05-06 22:15 35.04622 135.00259 26084 ft 403 kts 257°
2026-05-06 22:15 35.04038 134.96913 26083 ft 403 kts 257°
2026-05-06 22:15 35.03453 134.93571 26087 ft 403 kts 257°
2026-05-06 22:16 35.02869 134.90233 26084 ft 402 kts 257°
2026-05-06 22:16 35.02285 134.86897 26085 ft 402 kts 257°
2026-05-06 22:16 35.01700 134.83565 26081 ft 401 kts 257°
2026-05-06 22:16 35.01312 134.81361 26088 ft 401 kts 257°
2026-05-06 22:17 35.00975 134.79454 26088 ft 401 kts 257°
2026-05-06 22:17 35.00386 134.76132 26088 ft 401 kts 257°
2026-05-06 22:17 34.99796 134.72808 26086 ft 401 kts 257°
2026-05-06 22:17 34.99208 134.69485 26087 ft 401 kts 257°
2026-05-06 22:18 34.98588 134.66172 26093 ft 400 kts 256°
2026-05-06 22:18 34.97904 134.62882 26090 ft 400 kts 255°
2026-05-06 22:18 34.97182 134.59608 26093 ft 400 kts 254°
2026-05-06 22:18 34.96447 134.56340 26095 ft 400 kts 254°
2026-05-06 22:19 34.95710 134.53069 26094 ft 400 kts 254°
2026-05-06 22:19 34.94983 134.49801 26091 ft 399 kts 254°
2026-05-06 22:19 34.94262 134.46537 26090 ft 399 kts 254°
2026-05-06 22:19 34.93544 134.43270 26096 ft 399 kts 254°
2026-05-06 22:20 34.92831 134.40001 26099 ft 399 kts 255°
2026-05-06 22:20 34.92121 134.36735 26098 ft 398 kts 254°
2026-05-06 22:20 34.91412 134.33476 26097 ft 398 kts 255°
2026-05-06 22:20 34.90717 134.30290 26100 ft 398 kts 255°
2026-05-06 22:21 34.90004 134.27033 26099 ft 398 kts 254°
2026-05-06 22:21 34.89288 134.23782 26096 ft 398 kts 254°
2026-05-06 22:21 34.88572 134.20530 26096 ft 397 kts 254°
2026-05-06 22:21 34.87859 134.17283 26102 ft 397 kts 254°
2026-05-06 22:22 34.87143 134.14034 26098 ft 397 kts 254°
2026-05-06 22:22 34.86426 134.10793 26102 ft 396 kts 254°
2026-05-06 22:22 34.85710 134.07557 26098 ft 396 kts 254°
2026-05-06 22:22 34.84997 134.04341 25930 ft 389 kts 254°
2026-05-06 22:23 34.84298 134.01195 25701 ft 382 kts 254°
2026-05-06 22:23 34.83606 133.98081 25456 ft 380 kts 254°
2026-05-06 22:23 34.82918 133.94983 25223 ft 379 kts 254°
2026-05-06 22:23 34.82232 133.91895 24997 ft 375 kts 254°
2026-05-06 22:24 34.81554 133.88855 24597 ft 370 kts 254°
2026-05-06 22:24 34.80881 133.85849 24165 ft 366 kts 254°
2026-05-06 22:24 34.80216 133.82878 23734 ft 362 kts 254°
2026-05-06 22:24 34.79558 133.79932 23261 ft 359 kts 254°
2026-05-06 22:25 34.78910 133.77031 22862 ft 353 kts 254°
2026-05-06 22:25 34.78271 133.74169 22457 ft 348 kts 254°
2026-05-06 22:25 34.77642 133.71349 22071 ft 343 kts 254°
2026-05-06 22:25 34.77018 133.68566 21692 ft 340 kts 254°
2026-05-06 22:26 34.76392 133.65796 21307 ft 339 kts 254°
2026-05-06 22:26 34.75768 133.63041 20925 ft 338 kts 254°
2026-05-06 22:26 34.75148 133.60294 20546 ft 336 kts 254°
2026-05-06 22:26 34.74531 133.57555 20146 ft 335 kts 254°
2026-05-06 22:27 34.73915 133.54834 19757 ft 333 kts 254°
2026-05-06 22:27 34.73299 133.52126 19359 ft 332 kts 254°
2026-05-06 22:27 34.72684 133.49423 18960 ft 331 kts 254°
2026-05-06 22:27 34.72072 133.46731 18556 ft 330 kts 254°
2026-05-06 22:28 34.71462 133.44049 18108 ft 329 kts 254°
2026-05-06 22:28 34.70855 133.41378 17703 ft 327 kts 254°
2026-05-06 22:28 34.70251 133.38721 17312 ft 326 kts 254°
2026-05-06 22:28 34.69651 133.36079 16900 ft 324 kts 254°
2026-05-06 22:29 34.68990 133.33465 16496 ft 322 kts 248°
2026-05-06 22:29 34.68127 133.30958 16074 ft 321 kts 247°
2026-05-06 22:29 34.67261 133.28456 15654 ft 321 kts 247°
2026-05-06 22:29 34.66432 133.26050 15253 ft 320 kts 247°
2026-05-06 22:30 34.65576 133.23564 14842 ft 319 kts 247°
2026-05-06 22:30 34.64722 133.21080 14418 ft 319 kts 247°
2026-05-06 22:30 34.63866 133.18588 13935 ft 321 kts 247°
2026-05-06 22:30 34.63007 133.16087 13463 ft 321 kts 247°
2026-05-06 22:31 34.62150 133.13596 13034 ft 319 kts 247°
2026-05-06 22:31 34.61296 133.11113 12600 ft 318 kts 247°
2026-05-06 22:31 34.60444 133.08642 12167 ft 317 kts 247°
2026-05-06 22:31 34.59595 133.06180 11739 ft 316 kts 247°
2026-05-06 22:32 34.58745 133.03719 11301 ft 317 kts 247°
2026-05-06 22:32 34.57892 133.01254 10851 ft 317 kts 247°
2026-05-06 22:32 34.57034 132.98791 10453 ft 316 kts 246°
2026-05-06 22:32 34.56193 132.96381 10324 ft 304 kts 246°
2026-05-06 22:33 34.55384 132.94051 10205 ft 295 kts 246°
2026-05-06 22:33 34.54597 132.91792 10004 ft 287 kts 246°
2026-05-06 22:33 34.53777 132.89607 9943 ft 284 kts 244°
2026-05-06 22:33 34.52911 132.87424 9452 ft 291 kts 243°
2026-05-06 22:34 34.52029 132.85243 9164 ft 284 kts 243°
2026-05-06 22:34 34.51169 132.83120 8463 ft 279 kts 243°
2026-05-06 22:34 34.50332 132.81049 7773 ft 276 kts 243°
2026-05-06 22:34 34.49499 132.78984 7167 ft 270 kts 243°
2026-05-06 22:35 34.48680 132.76950 6594 ft 271 kts 243°
2026-05-06 22:35 34.47862 132.74916 6311 ft 266 kts 242°
2026-05-06 22:35 34.47062 132.72919 5956 ft 259 kts 243°
2026-05-06 22:35 34.46288 132.70984 5792 ft 250 kts 242°
2026-05-06 22:36 34.45537 132.69105 5672 ft 239 kts 242°
2026-05-06 22:36 34.44827 132.67334 5596 ft 230 kts 243°
2026-05-06 22:36 34.44135 132.65606 5488 ft 225 kts 243°
2026-05-06 22:36 34.43455 132.63968 5383 ft 212 kts 237°
2026-05-06 22:37 34.42378 132.62826 5205 ft 208 kts 203°
2026-05-06 22:37 34.40956 132.62669 5034 ft 211 kts 168°
2026-05-06 22:37 34.39719 132.63569 4866 ft 217 kts 132°
2026-05-06 22:37 34.39156 132.65263 4684 ft 224 kts 94°
2026-05-06 22:38 34.39332 132.66495 4579 ft 219 kts 67°
2026-05-06 22:38 34.40214 132.67920 4391 ft 206 kts 48°
2026-05-06 22:38 34.41308 132.69701 4185 ft 193 kts 57°
2026-05-06 22:38 34.42029 132.71031 4034 ft 185 kts 58°
2026-05-06 22:39 34.42713 132.72303 3903 ft 178 kts 58°
2026-05-06 22:39 34.43171 132.73148 3838 ft 178 kts 58°
2026-05-06 22:39 34.43574 132.74517 3566 ft 170 kts 88°
2026-05-06 22:39 34.43590 132.75937 3371 ft 169 kts 94°
2026-05-06 22:40 34.43591 132.77356 3127 ft 166 kts 92°
2026-05-06 22:40 34.43593 132.78761 2915 ft 167 kts 92°
2026-05-06 22:40 34.43594 132.80124 2702 ft 158 kts 92°
2026-05-06 22:40 34.43596 132.81425 2481 ft 151 kts 91°
2026-05-06 22:41 34.43598 132.83938 2082 ft 146 kts 91°
2026-05-06 22:41 34.43598 132.85166 1898 ft 146 kts 90°
2026-05-06 22:41 34.43600 132.86388 1709 ft 145 kts 91°
2026-05-06 22:42 34.43601 132.87606 1544 ft 144 kts 90°
2026-05-06 22:42 34.43601 132.88816 1368 ft 143 kts 90°
2026-05-06 22:42 34.43602 132.90022 1176 ft 143 kts 90°
2026-05-06 22:42 34.43602 132.91193 1078 ft 128 kts 90°
2026-05-06 22:43 34.43601 132.91899 1080 ft 40 kts 90°
2026-05-06 22:43 34.43600 132.91988 1080 ft 5 kts 91°
2026-05-06 22:43 34.43602 132.92082 1078 ft 17 kts 89°
2026-05-06 22:43 34.43654 132.92206 1077 ft 13 kts 18°
2026-05-06 22:44 34.43671 132.92210 1078 ft 0 kts
2026-05-06 22:44 34.43672 132.92210 1078 ft 1 kts
2026-05-06 22:44 34.43692 132.92213 1078 ft 5 kts
2026-05-06 22:44 34.43743 132.92201 1079 ft 10 kts 327°
2026-05-06 22:45 34.43770 132.92098 1078 ft 17 kts 270°
2026-05-06 22:45 34.43777 132.91946 1075 ft 11 kts 307°
2026-05-06 22:45 34.43864 132.91930 1077 ft 15 kts 358°
2026-05-06 22:45 34.43879 132.91930 1078 ft 1 kts
2026-05-06 22:46 34.43897 132.91930 1079 ft 0 kts
2026-05-06 22:46 34.43898 132.91930 1079 ft 0 kts